Flag for U.S.A. Weather past 2 weeks in Hollywood, Florida, U.S.A.

Now
83 °F

More clouds than sun.


Feels Like: 92 °F
Forecast: 77 / 85 °F
Wind: 10 mph from Southeast

Location: Fort Lauderdale / Hollywood International Airport

Current Time: Apr 28, 2015 at 10:28:51 AM

Latest Report: Apr 28, 2015 at 9:53 AM


Visibility: 10 mi

Pressure: 29.80 "Hg

Humidity: 82%

Dew point: 77 °F

Location of HollywoodLocation

Historic Weather in Hollywood — Graph

°F

Hollywood temperature yesterday

Maximum temperature yesterday: 92 °F (at 1:53 PM)
Minimum temperature yesterday: 73 °F (at 6:53 PM)
Average temperature yesterday: 82 °F

Past Weeks' High & Low Weather Summary

 TemperatureHumidityPressure
High95 °F (Apr 26, 1:53 PM)97% (Apr 24, 2:53 AM)30.17 "Hg (Apr 24, 2:53 AM)
Low73 °F (Apr 27, 6:53 PM)46% (Apr 26, 1:53 PM)29.74 "Hg (Apr 26, 5:53 PM)
Average81 °F76%29.96 "Hg
* Reported Apr 13 8:53 AM — Apr 28 8:53 AM, Hollywood, Weather by CustomWeather, © 2015

Note: Actual official high and low records may vary slightly from our data, if they occured in-between our weather recording intervals... More about our weather records

Advertising

Hollywood weather history for previous 24 hours

 ConditionsComfort  
Time TempWeatherWind HumidityBarometerVisibility
8:53 AM
Tue, Apr 28
82 °FOvercast.13 mph79%29.80 "Hg10 mi
7:53 AM80 °FOvercast.8 mph85%29.79 "Hg10 mi
6:53 AM79 °FOvercast.7 mph82%29.79 "Hg10 mi
5:53 AM78 °FPassing clouds.8 mph84%29.78 "Hg10 mi
4:53 AM79 °FPassing clouds.7 mph82%29.78 "Hg10 mi
3:53 AM78 °FPassing clouds.5 mph82%29.79 "Hg10 mi
2:53 AM78 °FPassing clouds.7 mph84%29.80 "Hg10 mi
1:53 AM78 °FPassing clouds.5 mph76%29.82 "Hg10 mi
12:53 AM78 °FPartly cloudy.8 mph84%29.85 "Hg10 mi
11:53 PM
Mon, Apr 27
78 °FPassing clouds.9 mph82%29.85 "Hg10 mi
10:53 PM77 °FOvercast.10 mph90%29.86 "Hg10 mi
9:53 PM78 °FOvercast.9 mph79%29.85 "Hg10 mi
9:03 PM80 °FPartly cloudy.13 mph71%29.82 "Hg10 mi
8:53 PM81 °FMostly cloudy.13 mph74%29.81 "Hg10 mi
7:53 PM73 °FMostly cloudy.9 mph84%29.79 "Hg10 mi
6:53 PM73 °FThunderstorms. Partly sunny.22 mph97%29.78 "Hg7 mi
5:53 PM85 °FMostly cloudy.16 mph75%29.75 "Hg10 mi
4:53 PM87 °FPartly sunny.14 mph63%29.76 "Hg10 mi
3:53 PM89 °FPartly sunny.16 mph57%29.76 "Hg10 mi
2:53 PM92 °FPartly sunny.3 mph49%29.76 "Hg10 mi
1:53 PM92 °FBroken clouds.5 mph49%29.79 "Hg10 mi
12:53 PM91 °FPartly sunny.9 mph52%29.82 "Hg10 mi
11:53 AM90 °FPartly sunny.12 mph50%29.84 "Hg10 mi
10:53 AM88 °FPartly sunny.12 mph59%29.85 "Hg10 mi
Weather by CustomWeather, © 2015

See weather overviewHow to use our weather pages